User: anonymous   Login
Location: *
(37.5724°S, 58.0067°E)
Time: 05:00:40
(UTC+00:00)
Language:

Cosmos 1726 - Orbit

View from above orbital plane
View from above orbital plane
View from above satellite
View from above satellite

Ground track
Ground track

The orbit data is extracted from the following two-line orbital elements,

1 16495U 86006A   21125.40588644  .00001233  00000-0  46961-4 0  9994
2 16495  82.4717  86.5386 0010680 255.7213 104.2839 15.25710898932133
Epoch (UTC): 05 May 2021 09:44:28
Eccentricity: 0.0010680
inclination: 82.4717°
perigee height: 481 km
apogee height: 496 km
right ascension of ascending node: 86.5386°
argument of perigee: 255.7213°
revolutions per day: 15.25710898
mean anomaly at epoch: 104.2839°
orbit number at epoch: 93213

The dashed part of the orbit path shows where the satellite is in the earth's shadow,  

DLR